Weather History for Air Force Academy, CO

Change the Weather History Date:

Saturday, March 1, 2014

  Actual Average Record
Temperature  
Mean Temperature 19 °F -  
Max Temperature 26 °F 41 °F 68 °F (2008)
Min Temperature 12 °F 19 °F 3 °F (2002)
Degree Days  
Heating Degree Days 46    
Moisture  
Dew Point 17 °F    
Average Humidity 92    
Maximum Humidity 100    
Minimum Humidity 74    
Precipitation  
Precipitation 0.00 in - - ()
Sea Level Pressure  
Sea Level Pressure 29.87 in    
Wind  
Wind Speed 9 mph (South)    
Max Wind Speed 18 mph    
Max Gust Speed -    
Visibility 3 miles    
Events Fog , Snow    
Averages and records for this station are not official NWS values.
T = Trace of Precipitation, MM = Missing Value Source: NWS Daily Summary

Daily Weather History Graph

Daily Weather History Graph

Search for Another Location

Airport:

Trip Planner

Search our weather history database for the weather conditions in past years. The results will help you decide how hot, cold, wet, or windy it might be!

Date:

Astronomy

Mar. 01, 2014 Rise Set
Actual Time 6:31 AM MST 5:52 PM MST
Civil Twilight 6:04 AM MST 6:18 PM MST
Nautical Twilight 5:34 AM MST 6:49 PM MST
Astronomical Twilight 5:03 AM MST 7:20 PM MST
Moon 6:27 AM MST (3/1) 6:41 PM MST (3/1)
Length of Visible Light 12h 13m
Length of Day
11h 20m
New Moon, 0% of the Moon is Illuminated
Mar 1
New Moon
Mar 8
First Quarter
Mar 16
Full
Mar 23
Last Quarter
Mar 30
New

Hourly Weather History & Observations

Time (MST) Temp. Windchill Dew Point Humidity Pressure Visibility Wind Dir Wind Speed Gust Speed Precip Events Conditions
12:58 AM 26.4 °F 16.0 °F 23.0 °F 87% 29.78 in 10.0 mi SSE 11.5 mph - N/A   Overcast
1:43 AM 24.8 °F 14.0 °F 23.0 °F 93% 29.80 in 10.0 mi South 11.5 mph - N/A   Overcast
1:58 AM 25.0 °F 14.2 °F 22.6 °F 91% 29.76 in 10.0 mi SSE 11.5 mph - N/A   Overcast
2:53 AM 23.0 °F 12.4 °F 23.0 °F 100% 29.79 in 4.0 mi SSE 10.4 mph - N/A   Overcast
2:58 AM 23.7 °F 12.6 °F 22.5 °F 95% 29.76 in 4.0 mi SSE 11.5 mph - N/A   Overcast
3:03 AM 23.0 °F 12.4 °F 23.0 °F 100% 29.79 in 3.0 mi SSE 10.4 mph - N/A   Overcast
3:08 AM 23.0 °F 12.4 °F 23.0 °F 100% 29.79 in 2.5 mi SSE 10.4 mph - N/A   Overcast
3:18 AM 23.0 °F 12.4 °F 23.0 °F 100% 29.78 in 1.8 mi South 10.4 mph - N/A   Overcast
3:25 AM 23.0 °F 12.4 °F 23.0 °F 100% 29.78 in 1.2 mi South 10.4 mph - N/A   Light Freezing Drizzle
3:35 AM 23.0 °F 13.1 °F 23.0 °F 100% 29.78 in 2.0 mi SSE 9.2 mph - N/A   Light Freezing Drizzle
3:40 AM 23.0 °F 11.7 °F 23.0 °F 100% 29.78 in 1.2 mi SSE 11.5 mph - N/A   Light Freezing Drizzle
3:44 AM 23.0 °F 13.1 °F 23.0 °F 100% 29.78 in 1.0 mi South 9.2 mph - N/A   Mist
3:54 AM 23.0 °F 13.1 °F 23.0 °F 100% 29.78 in 1.5 mi South 9.2 mph - N/A   Overcast
3:58 AM 23.2 °F 14.1 °F 22.6 °F 98% 29.75 in 1.5 mi South 8.1 mph - 0.00 in   Overcast
4:17 AM 23.0 °F 14.7 °F 23.0 °F 100% 29.77 in 0.8 mi South 6.9 mph - N/A   Light Freezing Drizzle
4:58 AM 23.0 °F 13.9 °F 22.3 °F 97% 29.75 in 0.8 mi South 8.1 mph - 0.00 in   Light Freezing Drizzle
5:58 AM 22.6 °F 12.6 °F 21.9 °F 97% 29.74 in 0.5 mi South 9.2 mph - 0.00 in Fog Light Freezing Drizzle
6:28 AM 23.0 °F - 21.2 °F 93% 29.75 in 0.2 mi SSW 2.3 mph - N/A Fog Light Freezing Drizzle
6:54 AM 23.0 °F 15.8 °F 21.2 °F 93% 29.73 in 0.2 mi South 5.8 mph - N/A Fog Light Freezing Fog
6:58 AM 22.5 °F 16.3 °F 21.7 °F 97% 29.74 in 0.2 mi SSE 4.6 mph - 0.00 in Fog Light Freezing Fog
7:21 AM 23.0 °F 13.9 °F 23.0 °F 100% 29.74 in 0.5 mi South 8.1 mph - N/A Fog Light Freezing Drizzle
7:36 AM 23.0 °F 15.8 °F 23.0 °F 100% 29.77 in 0.2 mi SSW 5.8 mph - N/A Fog Light Freezing Drizzle
7:58 AM 22.6 °F - 21.9 °F 97% 29.82 in 0.2 mi Calm Calm - 0.00 in Fog Light Freezing Drizzle
8:18 AM 23.0 °F - 23.0 °F 100% 29.78 in 0.2 mi NNW 2.3 mph - N/A Fog Light Freezing Fog
8:28 AM 23.0 °F 17.0 °F 23.0 °F 100% 29.79 in 0.5 mi NNW 4.6 mph - N/A Fog Light Freezing Fog
8:38 AM 24.8 °F 17.9 °F 23.0 °F 93% 29.79 in 1.8 mi NNW 5.8 mph - N/A   Overcast
8:43 AM 24.8 °F 17.9 °F 24.8 °F 100% 29.80 in 3.0 mi NNW 5.8 mph - N/A   Overcast
8:48 AM 24.8 °F 17.9 °F 24.8 °F 100% 29.79 in 5.0 mi North 5.8 mph - N/A   Overcast
8:58 AM 24.8 °F 16.9 °F 24.8 °F 100% 29.78 in 4.0 mi NNW 6.9 mph - 0.00 in   Overcast
9:01 AM 24.8 °F 14.6 °F 24.8 °F 100% 29.77 in 4.0 mi NNW 10.4 mph - N/A   Overcast
9:13 AM 26.6 °F 16.2 °F 24.8 °F 93% 29.77 in 4.0 mi NNW 11.5 mph - N/A   Overcast
9:18 AM 26.6 °F 15.7 °F 26.6 °F 100% 29.78 in 6.0 mi NNW 12.7 mph - N/A   Overcast
9:30 AM 26.6 °F 14.7 °F 24.8 °F 93% 29.79 in 10.0 mi NNW 15.0 mph - N/A   Overcast
9:45 AM 24.8 °F 11.9 °F 24.8 °F 100% 29.80 in 8.0 mi NNW 16.1 mph - N/A   Overcast
9:54 AM 23.0 °F 9.6 °F 23.0 °F 100% 29.80 in 10.0 mi NNW 16.1 mph - N/A   Overcast
9:58 AM 23.7 °F 10.5 °F 23.2 °F 98% 29.90 in 10.0 mi NW 16.1 mph - 0.00 in   Overcast
10:08 AM 23.0 °F 11.1 °F 23.0 °F 100% 29.81 in 10.0 mi NNW 12.7 mph - N/A   Overcast
10:26 AM 23.0 °F 8.7 °F 21.2 °F 93% 29.81 in 10.0 mi NW 18.4 mph - N/A   Overcast
10:31 AM 23.0 °F 9.6 °F 21.2 °F 93% 29.81 in 10.0 mi NW 16.1 mph - N/A Snow Light Snow
10:58 AM 21.2 °F 6.4 °F 19.4 °F 93% 29.96 in 10.0 mi NNW 18.4 mph - 0.00 in Snow Light Snow
11:58 AM 21.7 °F 11.5 °F 15.8 °F 78% 29.94 in 8.0 mi North 9.2 mph - 0.00 in Snow Light Snow
12:02 PM 21.2 °F 11.7 °F 15.8 °F 80% 29.83 in 8.0 mi NW 8.1 mph - N/A Snow Light Snow
12:17 PM 23.0 °F 15.8 °F 15.8 °F 74% 29.83 in 10.0 mi WNW 5.8 mph - N/A   Overcast
12:37 PM 23.0 °F - 15.8 °F 74% 29.83 in 10.0 mi Variable 2.3 mph - N/A   Overcast
12:58 PM 23.9 °F 16.8 °F 17.6 °F 77% 29.94 in 10.0 mi South 5.8 mph - 0.00 in Snow Light Snow
12:59 PM 24.8 °F 17.9 °F 17.6 °F 74% 29.84 in 10.0 mi South 5.8 mph - N/A   Overcast
1:14 PM 24.8 °F 13.4 °F 19.4 °F 80% 29.82 in 10.0 mi SSE 12.7 mph - N/A   Overcast
1:24 PM 24.8 °F 11.9 °F 21.2 °F 86% 29.82 in 10.0 mi South 16.1 mph - N/A   Overcast
1:34 PM 24.8 °F 11.9 °F 21.2 °F 86% 29.83 in 10.0 mi South 16.1 mph - N/A   Overcast
1:58 PM 23.5 °F 11.8 °F 21.2 °F 91% 29.93 in 10.0 mi SSE 12.7 mph - 0.00 in   Overcast
2:08 PM 23.0 °F 11.1 °F 19.4 °F 86% 29.81 in 10.0 mi SSE 12.7 mph - N/A   Overcast
2:38 PM 23.0 °F 9.6 °F 17.6 °F 80% 29.81 in 10.0 mi SSE 16.1 mph - N/A   Overcast
2:58 PM 22.1 °F 8.5 °F 18.0 °F 84% 29.95 in 10.0 mi South 16.1 mph - N/A   Overcast
3:18 PM 21.2 °F 8.3 °F 17.6 °F 86% 29.82 in 10.0 mi South 13.8 mph - N/A   Overcast
3:53 PM 19.4 °F 5.0 °F 15.8 °F 86% 29.82 in 10.0 mi SSE 16.1 mph - N/A   Overcast
3:58 PM 19.2 °F 4.7 °F 16.3 °F 89% 29.98 in 10.0 mi SSE 16.1 mph - N/A   Overcast
4:08 PM 19.4 °F 6.6 °F 15.8 °F 86% 29.82 in 3.0 mi SE 12.7 mph - N/A   Overcast
4:13 PM 17.6 °F 4.3 °F 15.8 °F 93% 29.82 in 2.0 mi SSE 12.7 mph - N/A   Overcast
4:18 PM 17.6 °F 4.3 °F 15.8 °F 93% 29.82 in 3.0 mi SE 12.7 mph - N/A   Overcast
4:23 PM 17.6 °F 3.7 °F 15.8 °F 93% 29.83 in 1.8 mi SSE 13.8 mph - N/A   Overcast
4:32 PM 17.6 °F 4.3 °F 15.8 °F 93% 29.84 in 1.2 mi SSE 12.7 mph - N/A   Light Freezing Drizzle
4:37 PM 17.6 °F 5.0 °F 15.8 °F 93% 29.83 in 1.8 mi SSE 11.5 mph - N/A   Light Freezing Drizzle
4:47 PM 17.6 °F 5.7 °F 15.8 °F 93% 29.85 in 0.5 mi SSE 10.4 mph - N/A Fog Light Freezing Drizzle
4:49 PM 17.6 °F 5.0 °F 15.8 °F 93% 29.85 in 0.2 mi SSE 11.5 mph - N/A Fog Light Freezing Fog
4:53 PM 17.6 °F 6.4 °F 15.8 °F 93% 29.85 in 0.2 mi South 9.2 mph - N/A Fog Light Freezing Drizzle
4:58 PM 17.6 °F 4.3 °F 16.0 °F 93% 30.01 in 0.2 mi SE 12.7 mph - 0.00 in Fog Light Freezing Drizzle
5:20 PM 17.6 °F 4.3 °F 14.0 °F 86% 29.86 in 0.2 mi SE 12.7 mph - N/A Fog , Snow Light Freezing Fog
5:32 PM 15.8 °F 2.7 °F 14.0 °F 93% 29.85 in 0.2 mi South 11.5 mph - N/A Fog Light Freezing Fog
5:33 PM 15.8 °F 3.4 °F 14.0 °F 93% 29.85 in 0.2 mi SSE 10.4 mph - N/A Fog Light Freezing Drizzle
5:58 PM 16.2 °F 7.6 °F 14.2 °F 92% 30.04 in 0.2 mi SE 5.8 mph - 0.00 in Fog Light Freezing Drizzle
6:13 PM 15.8 °F 7.2 °F 14.0 °F 93% 29.87 in 0.5 mi SSE 5.8 mph - N/A Fog Light Freezing Drizzle
6:19 PM 15.8 °F 7.2 °F 14.0 °F 93% 29.87 in 0.8 mi South 5.8 mph - N/A Snow Light Snow
6:29 PM 15.8 °F 7.2 °F 14.0 °F 93% 29.88 in 0.5 mi SSE 5.8 mph - N/A Fog Light Freezing Fog
6:30 PM 15.8 °F 8.6 °F 14.0 °F 93% 29.88 in 0.5 mi SSE 4.6 mph - N/A Fog Light Freezing Drizzle
6:55 PM 15.8 °F 8.6 °F 14.0 °F 93% 29.87 in 1.5 mi South 4.6 mph - N/A   Light Freezing Drizzle
6:58 PM 15.8 °F 10.2 °F 13.6 °F 91% 30.04 in 1.5 mi SSW 3.5 mph - 0.00 in   Light Freezing Drizzle
7:10 PM 15.8 °F - 14.0 °F 93% 29.88 in 1.2 mi Variable 2.3 mph - N/A   Overcast
7:15 PM 15.8 °F - 14.0 °F 93% 29.88 in 1.2 mi Variable 2.3 mph - N/A   Overcast
7:30 PM 15.8 °F 10.2 °F 14.0 °F 93% 29.88 in 1.0 mi Variable 3.5 mph - N/A   Mist
7:55 PM 15.8 °F 8.6 °F 14.0 °F 93% 29.89 in 1.2 mi South 4.6 mph - N/A   Overcast
7:58 PM 15.6 °F 8.3 °F 13.5 °F 91% 30.07 in 1.2 mi South 4.6 mph - 0.00 in   Overcast
8:08 PM 15.8 °F 8.6 °F 14.0 °F 93% 29.89 in 2.0 mi SSW 4.6 mph - N/A   Overcast
8:13 PM 15.8 °F 6.1 °F 14.0 °F 93% 29.89 in 3.0 mi South 6.9 mph - N/A   Overcast
8:18 PM 15.8 °F 6.1 °F 14.0 °F 93% 29.90 in 2.0 mi South 6.9 mph - N/A   Overcast
8:20 PM 15.8 °F 6.1 °F 14.0 °F 93% 29.90 in 1.5 mi SSE 6.9 mph - N/A   Light Freezing Drizzle
8:25 PM 15.8 °F 5.1 °F 14.0 °F 93% 29.91 in 1.0 mi SSE 8.1 mph - N/A   Light Freezing Drizzle
8:30 PM 15.8 °F 6.1 °F 14.0 °F 93% 29.90 in 1.2 mi SSE 6.9 mph - N/A   Light Freezing Drizzle
8:34 PM 15.8 °F 5.1 °F 14.0 °F 93% 29.90 in 2.5 mi SSE 8.1 mph - N/A Snow Light Snow
8:44 PM 15.8 °F 7.2 °F 12.2 °F 86% 29.91 in 1.8 mi SSE 5.8 mph - N/A Snow Light Snow
8:45 PM 15.8 °F 7.2 °F 12.2 °F 86% 29.91 in 2.0 mi SSE 5.8 mph - N/A   Overcast
8:46 PM 15.8 °F 6.1 °F 12.2 °F 86% 29.91 in 2.0 mi SSE 6.9 mph - N/A   Light Freezing Drizzle
8:56 PM 14.0 °F 5.1 °F 12.2 °F 93% 29.90 in 1.2 mi SSE 5.8 mph - N/A   Light Freezing Drizzle
8:58 PM 14.9 °F 5.0 °F 12.6 °F 90% 30.08 in 1.0 mi South 6.9 mph - 0.00 in   Light Freezing Drizzle
9:13 PM 14.0 °F 5.1 °F 12.2 °F 93% 29.91 in 1.2 mi SSE 5.8 mph - N/A   Light Freezing Drizzle
9:21 PM 14.0 °F 2.9 °F 12.2 °F 93% 29.91 in 1.5 mi SSE 8.1 mph - N/A Snow Light Snow
9:31 PM 14.0 °F 2.0 °F 12.2 °F 93% 29.92 in 1.0 mi SSE 9.2 mph - N/A Snow Light Snow
9:35 PM 14.0 °F 3.9 °F 12.2 °F 93% 29.92 in 0.8 mi South 6.9 mph - N/A   Mist
9:37 PM 14.0 °F 2.9 °F 12.2 °F 93% 29.92 in 0.8 mi South 8.1 mph - N/A   Light Freezing Drizzle
9:50 PM 14.0 °F 3.9 °F 12.2 °F 93% 29.92 in 1.0 mi SSE 6.9 mph - N/A Snow Light Snow
9:55 PM 14.0 °F 5.1 °F 10.4 °F 86% 29.92 in 1.0 mi SSE 5.8 mph - N/A Snow Light Snow
9:58 PM 13.6 °F 4.6 °F 11.3 °F 90% 30.10 in 1.0 mi SSE 5.8 mph - 0.00 in Snow Light Snow
10:03 PM 14.0 °F 3.9 °F 10.4 °F 86% 29.92 in 0.8 mi SSE 6.9 mph - N/A   Mist
10:04 PM 14.0 °F 3.9 °F 10.4 °F 86% 29.92 in 0.8 mi SSE 6.9 mph - N/A   Light Freezing Drizzle
10:12 PM 14.0 °F 2.9 °F 10.4 °F 86% 29.92 in 0.8 mi South 8.1 mph - N/A Snow Light Snow
10:37 PM 14.0 °F 5.1 °F 10.4 °F 86% 29.93 in 1.0 mi South 5.8 mph - N/A   Mist
10:38 PM 14.0 °F 6.5 °F 10.4 °F 86% 29.93 in 1.0 mi SSW 4.6 mph - N/A   Light Freezing Drizzle
10:47 PM 12.2 °F - 10.4 °F 92% 29.93 in 0.8 mi South 2.3 mph - N/A Snow Light Snow
10:57 PM 14.0 °F 3.9 °F 10.4 °F 86% 29.93 in 1.5 mi SSE 6.9 mph - N/A Snow Light Snow
10:58 PM 13.1 °F 2.8 °F 10.8 °F 90% 30.13 in 1.5 mi SSE 6.9 mph - 0.00 in Snow Light Snow
11:08 PM 14.0 °F 2.9 °F 10.4 °F 86% 29.93 in 1.0 mi SSE 8.1 mph - N/A Snow Light Snow
11:13 PM 14.0 °F 3.9 °F 10.4 °F 86% 29.93 in 0.8 mi South 6.9 mph - N/A   Mist
11:14 PM 14.0 °F 3.9 °F 10.4 °F 86% 29.93 in 0.8 mi SSW 6.9 mph - N/A   Light Freezing Drizzle
11:17 PM 14.0 °F 5.1 °F 10.4 °F 86% 29.93 in 0.8 mi SSE 5.8 mph - N/A Snow Light Snow
11:31 PM 12.2 °F 2.9 °F 10.4 °F 92% 29.92 in 1.2 mi South 5.8 mph - N/A   Overcast
11:32 PM 12.2 °F 2.9 °F 10.4 °F 92% 29.92 in 1.2 mi South 5.8 mph - N/A   Light Freezing Drizzle
11:37 PM 12.2 °F 2.9 °F 10.4 °F 92% 29.92 in 2.5 mi South 5.8 mph - N/A   Light Freezing Drizzle
11:38 PM 12.2 °F 4.3 °F 10.4 °F 92% 29.92 in 3.0 mi South 4.6 mph - N/A Snow Light Snow
11:48 PM 12.2 °F 1.7 °F 10.4 °F 92% 29.92 in 2.5 mi South 6.9 mph - N/A Snow Light Snow
11:53 PM 12.2 °F 1.7 °F 10.4 °F 92% 29.92 in 1.8 mi South 6.9 mph - N/A Snow Light Snow
11:58 PM 12.6 °F 3.4 °F 10.0 °F 90% 30.12 in 1.5 mi South 5.8 mph - 0.00 in Snow Light Snow
11:59 PM 12.2 °F 4.3 °F 10.4 °F 92% 29.92 in 1.5 mi SSE 4.6 mph - N/A   Overcast